| time (UTC) | temp F | wind direction | speed MPH | gust MPH | rain 1hr in | rain 24hr in | rain mn in | humidity % | barometer mb |
| 20260831230106 | 71 | 81 | 0.0 | 2.0 | 0.00 | 0.03 | 0.01 | 77 | 1017.8 |
| 20260831224557 | 71 | 81 | 0.0 | 1.0 | 0.00 | 0.03 | 0.01 | 77 | 1017.8 |
| 20260831223101 | 72 | 81 | 0.0 | 2.0 | 0.00 | 0.03 | 0.01 | 75 | 1018.0 |
| 20260831221605 | 72 | 81 | 0.0 | 3.0 | 0.00 | 0.03 | 0.01 | 75 | 1018.1 |
| 20260831220054 | 73 | 81 | 0.0 | 3.0 | 0.00 | 0.03 | 0.01 | 74 | 1018.0 |
| 20260831214603 | 73 | 81 | 0.0 | 2.0 | 0.00 | 0.03 | 0.01 | 73 | 1017.9 |
| 20260831213053 | 74 | 81 | 0.0 | 2.0 | 0.00 | 0.03 | 0.01 | 72 | 1017.8 |
| 20260831211552 | 74 | 81 | 1.0 | 4.0 | 0.00 | 0.03 | 0.01 | 71 | 1017.8 |
| 20260831210052 | 75 | 81 | 1.0 | 3.0 | 0.00 | 0.03 | 0.01 | 69 | 1017.8 |
| 20260831204551 | 75 | 132 | 0.0 | 3.0 | 0.00 | 0.03 | 0.01 | 67 | 1017.8 |
| 20260831203059 | 75 | 228 | 0.0 | 4.0 | 0.00 | 0.03 | 0.01 | 65 | 1017.7 |
| 20260831201553 | 75 | 242 | 0.0 | 1.0 | 0.00 | 0.03 | 0.01 | 66 | 1017.6 |
| 20260831200052 | 76 | 242 | 0.0 | 2.0 | 0.00 | 0.03 | 0.01 | 64 | 1017.7 |
| 20260831194602 | 76 | 248 | 0.0 | 2.0 | 0.00 | 0.03 | 0.01 | 64 | 1017.8 |
| 20260831193047 | 76 | 252 | 2.0 | 8.0 | 0.00 | 0.03 | 0.01 | 61 | 1017.9 |
| 20260831191546 | 76 | 86 | 0.0 | 6.0 | 0.00 | 0.03 | 0.01 | 62 | 1018.1 |
| 20260831190056 | 76 | 331 | 1.0 | 4.0 | 0.00 | 0.03 | 0.01 | 58 | 1018.2 |
| 20260831184544 | 76 | 331 | 1.0 | 4.0 | 0.00 | 0.03 | 0.01 | 61 | 1018.4 |
| 20260831183042 | 75 | 5 | 0.0 | 3.0 | 0.00 | 0.03 | 0.01 | 63 | 1018.6 |
| 20260831181539 | 75 | 112 | 1.0 | 3.0 | 0.00 | 0.03 | 0.01 | 62 | 1018.6 |
| 20260831180042 | 74 | 142 | 0.0 | 4.0 | 0.00 | 0.03 | 0.01 | 63 | 1018.7 |
| 20260831174535 | 74 | 343 | 0.0 | 4.0 | 0.00 | 0.03 | 0.01 | 66 | 1019.2 |
| 20260831173034 | 73 | 79 | 0.0 | 2.0 | 0.00 | 0.03 | 0.01 | 68 | 1019.1 |
| 20260831171532 | 73 | 79 | 0.0 | 4.0 | 0.00 | 0.03 | 0.01 | 67 | 1019.0 |
| 20260831170031 | 73 | 75 | 0.0 | 5.0 | 0.00 | 0.03 | 0.01 | 66 | 1019.3 |
| 20260831164529 | 73 | 91 | 0.0 | 3.0 | 0.00 | 0.03 | 0.01 | 67 | 1019.5 |
| 20260831163029 | 72 | 91 | 0.0 | 3.0 | 0.00 | 0.03 | 0.01 | 69 | 1019.5 |
| 20260831161528 | 72 | 91 | 0.0 | 2.0 | 0.00 | 0.03 | 0.01 | 69 | 1019.6 |
| 20260831160030 | 73 | 95 | 0.0 | 2.0 | 0.00 | 0.03 | 0.01 | 68 | 1019.6 |
| 20260831154525 | 72 | 96 | 2.0 | 4.0 | 0.00 | 0.03 | 0.01 | 62 | 1019.7 |
| 20260831153024 | 72 | 297 | 0.0 | 4.0 | 0.00 | 0.03 | 0.01 | 68 | 1020.0 |
| 20260831151527 | 72 | 283 | 0.0 | 4.0 | 0.00 | 0.03 | 0.01 | 68 | 1020.0 |
| 20260831150020 | 71 | 251 | 1.0 | 4.0 | 0.00 | 0.03 | 0.01 | 70 | 1019.9 |
| 20260831144517 | 70 | 107 | 0.0 | 6.0 | 0.00 | 0.03 | 0.01 | 73 | 1019.8 |
| 20260831143014 | 69 | 279 | 0.0 | 4.0 | 0.00 | 0.03 | 0.01 | 75 | 1019.9 |
| 20260831141513 | 67 | 204 | 0.0 | 3.0 | 0.00 | 0.03 | 0.01 | 76 | 1019.8 |
| 20260831140015 | 67 | 89 | 1.0 | 7.0 | 0.00 | 0.03 | 0.01 | 79 | 1019.7 |
| 20260831134508 | 66 | 89 | 0.0 | 4.0 | 0.00 | 0.03 | 0.01 | 81 | 1019.7 |
| 20260831133006 | 65 | 113 | 0.0 | 8.0 | 0.00 | 0.03 | 0.01 | 82 | 1019.6 |
| 20260831131505 | 65 | 104 | 1.0 | 8.0 | 0.00 | 0.03 | 0.01 | 85 | 1019.7 |
| 20260831130003 | 64 | 102 | 0.0 | 6.0 | 0.00 | 0.03 | 0.01 | 86 | 1019.6 |
| 20260831124503 | 64 | 90 | 0.0 | 3.0 | 0.00 | 0.03 | 0.01 | 90 | 1019.6 |
| 20260831123000 | 64 | 89 | 0.0 | 3.0 | 0.01 | 0.03 | 0.01 | 91 | 1019.4 |
| 20260831121559 | 64 | 78 | 0.0 | 2.0 | 0.01 | 0.03 | 0.01 | 92 | 1019.3 |
| 20260831120105 | 63 | 79 | 0.0 | 2.0 | 0.01 | 0.03 | 0.01 | 92 | 1019.2 |
| 20260831114557 | 63 | 304 | 0.0 | 2.0 | 0.01 | 0.03 | 0.01 | 91 | 1019.2 |
| 20260831113057 | 62 | 308 | 0.0 | 0.0 | 0.00 | 0.02 | 0.00 | 91 | 1019.1 |
| 20260831111610 | 62 | 308 | 0.0 | 0.0 | 0.00 | 0.02 | 0.00 | 91 | 1018.8 |
| 20260831110051 | 61 | 308 | 0.0 | 0.0 | 0.00 | 0.02 | 0.00 | 90 | 1018.7 |
| 20260831104550 | 61 | 308 | 0.0 | 0.0 | 0.00 | 0.02 | 0.00 | 90 | 1018.7 |
| 20260831103054 | 61 | 308 | 0.0 | 0.0 | 0.00 | 0.02 | 0.00 | 90 | 1018.6 |
| 20260831101552 | 61 | 308 | 0.0 | 0.0 | 0.00 | 0.02 | 0.00 | 90 | 1018.3 |
| 20260831100044 | 62 | 308 | 0.0 | 0.0 | 0.00 | 0.02 | 0.00 | 90 | 1018.2 |
| 20260831094545 | 62 | 308 | 0.0 | 0.0 | 0.00 | 0.02 | 0.00 | 90 | 1018.1 |
| 20260831093041 | 62 | 308 | 0.0 | 0.0 | 0.00 | 0.02 | 0.00 | 90 | 1017.9 |
| 20260831091554 | 62 | 308 | 0.0 | 0.0 | 0.00 | 0.02 | 0.00 | 89 | 1017.8 |
| 20260831090037 | 63 | 308 | 0.0 | 0.0 | 0.00 | 0.02 | 0.00 | 89 | 1017.7 |
| 20260831084536 | 63 | 308 | 0.0 | 0.0 | 0.00 | 0.02 | 0.00 | 89 | 1017.5 |
| 20260831083034 | 63 | 308 | 0.0 | 0.0 | 0.00 | 0.02 | 0.00 | 89 | 1017.5 |
| 20260831081537 | 64 | 308 | 0.0 | 1.0 | 0.00 | 0.02 | 0.00 | 89 | 1017.4 |
| 20260831080054 | 64 | 308 | 0.0 | 0.0 | 0.00 | 0.02 | 0.00 | 89 | 1017.3 |
| 20260831074528 | 64 | 308 | 0.0 | 0.0 | 0.00 | 0.02 | 0.00 | 89 | 1017.1 |
| 20260831073055 | 64 | 308 | 0.0 | 1.0 | 0.00 | 0.02 | 0.00 | 89 | 1017.1 |
| 20260831071525 | 65 | 308 | 0.0 | 2.0 | 0.00 | 0.02 | 0.00 | 89 | 1016.9 |
| 20260831070027 | 65 | 308 | 0.0 | 1.0 | 0.00 | 0.02 | 0.00 | 89 | 1016.9 |
| 20260831064521 | 65 | 308 | 0.0 | 2.0 | 0.00 | 0.02 | 0.00 | 89 | 1016.8 |
| 20260831063030 | 66 | 308 | 0.0 | 1.0 | 0.00 | 0.02 | 0.00 | 88 | 1016.8 |
| 20260831061517 | 66 | 308 | 0.0 | 2.0 | 0.00 | 0.02 | 0.00 | 88 | 1016.7 |
| 20260831060019 | 66 | 308 | 1.0 | 3.0 | 0.00 | 0.02 | 0.00 | 88 | 1016.6 |
| 20260831054517 | 67 | 306 | 1.0 | 3.0 | 0.00 | 0.02 | 0.00 | 88 | 1016.5 |
| 20260831053010 | 67 | 305 | 0.0 | 3.0 | 0.00 | 0.02 | 0.00 | 88 | 1016.4 |
| 20260831051507 | 68 | 306 | 1.0 | 3.0 | 0.00 | 0.02 | 0.00 | 88 | 1016.3 |
| 20260831050005 | 69 | 305 | 0.0 | 1.0 | 0.00 | 0.02 | 0.00 | 88 | 1016.2 |
| 20260831044502 | 69 | 305 | 0.0 | 1.0 | 0.01 | 0.02 | 0.00 | 88 | 1016.3 |
| 20260831043100 | 69 | 305 | 0.0 | 0.0 | 0.02 | 0.02 | 0.00 | 88 | 1016.3 |
| 20260831041609 | 70 | 305 | 0.0 | 1.0 | 0.02 | 0.02 | 0.00 | 88 | 1016.2 |
| 20260831040056 | 70 | 305 | 0.0 | 2.0 | 0.02 | 0.02 | 0.00 | 87 | 1016.4 |
| 20260831034600 | 70 | 304 | 0.0 | 0.0 | 0.01 | 0.01 | 0.01 | 87 | 1015.9 |
| 20260831033054 | 71 | 304 | 0.0 | 0.0 | 0.00 | 0.00 | 0.00 | 86 | 1016.2 |
| 20260831031553 | 71 | 304 | 0.0 | 0.0 | 0.00 | 0.00 | 0.00 | 86 | 1016.4 |
| 20260831030059 | 71 | 304 | 0.0 | 0.0 | 0.00 | 0.00 | 0.00 | 85 | 1016.3 |
| 20260831024552 | 72 | 304 | 0.0 | 1.0 | 0.00 | 0.00 | 0.00 | 84 | 1016.3 |
| 20260831023052 | 72 | 303 | 0.0 | 7.0 | 0.00 | 0.00 | 0.00 | 83 | 1016.4 |
| 20260831021551 | 73 | 337 | 0.0 | 2.0 | 0.00 | 0.00 | 0.00 | 82 | 1016.2 |
| 20260831020051 | 73 | 344 | 0.0 | 3.0 | 0.00 | 0.00 | 0.00 | 81 | 1016.2 |
| 20260831014550 | 73 | 18 | 0.0 | 1.0 | 0.00 | 0.00 | 0.00 | 80 | 1016.1 |
| 20260831013055 | 73 | 337 | 0.0 | 2.0 | 0.00 | 0.00 | 0.00 | 79 | 1016.2 |
| 20260831011551 | 73 | 347 | 0.0 | 1.0 | 0.00 | 0.00 | 0.00 | 78 | 1016.0 |
| 20260831010104 | 73 | 347 | 0.0 | 2.0 | 0.00 | 0.00 | 0.00 | 77 | 1016.0 |
| 20260831004556 | 73 | 335 | 0.0 | 4.0 | 0.00 | 0.00 | 0.00 | 76 | 1016.0 |
| 20260831003101 | 73 | 333 | 0.0 | 2.0 | 0.00 | 0.00 | 0.00 | 75 | 1015.9 |
| 20260831001547 | 73 | 333 | 0.0 | 5.0 | 0.00 | 0.00 | 0.00 | 75 | 1015.8 |
| 20260831000047 | 73 | 73 | 0.0 | 1.0 | 0.00 | 0.00 | 0.00 | 73 | 1015.7 |
| 20260830234546 | 73 | 73 | 0.0 | 3.0 | 0.00 | 0.00 | 0.00 | 71 | 1015.5 |
| 20260830233045 | 74 | 93 | 0.0 | 3.0 | 0.00 | 0.00 | 0.00 | 70 | 1015.6 |
| 20260830231545 | 74 | 351 | 0.0 | 1.0 | 0.00 | 0.00 | 0.00 | 69 | 1015.7 |